Time,TemperatureF,DewpointF,PressureIn,WindDirection,WindDirectionDegrees,WindSpeedMPH,WindSpeedGustMPH,Humidity,HourlyPrecipIn,Conditions,Clouds,dailyrainin,SoftwareType,DateUTC
2013-07-20 00:02:00,75.0,71.0,29.91,SSW,197,6.0,8.0,88,0.00,,,0.00,,2013-07-20 05:02:00,
2013-07-20 00:12:00,75.0,71.0,29.91,SSW,197,6.0,8.0,88,0.00,,,0.00,,2013-07-20 05:12:00,
2013-07-20 00:22:00,75.0,71.0,29.91,SSW,196,7.0,8.0,87,0.00,,,0.00,,2013-07-20 05:22:00,
2013-07-20 00:32:00,75.0,71.0,29.91,SSW,197,5.0,8.0,87,0.00,,,0.00,,2013-07-20 05:32:00,
2013-07-20 00:52:00,75.0,71.0,29.91,SSW,197,5.0,8.0,86,0.00,,,0.00,,2013-07-20 05:52:00,
2013-07-20 01:01:00,75.0,71.0,29.91,SSW,197,5.0,8.0,86,0.00,,,0.00,,2013-07-20 06:01:00,
2013-07-20 01:11:00,75.0,71.0,29.91,SSW,197,5.0,8.0,86,0.00,,,0.00,,2013-07-20 06:11:00,
2013-07-20 01:21:00,75.0,71.0,29.91,SSW,197,5.0,8.0,86,0.00,,,0.00,,2013-07-20 06:21:00,
2013-07-20 01:32:00,73.0,69.0,29.90,SSW,197,2.0,5.0,87,0.00,,,0.00,,2013-07-20 06:32:00,
2013-07-20 01:43:00,73.0,69.0,29.90,SSW,197,2.0,5.0,87,0.00,,,0.00,,2013-07-20 06:43:00,
2013-07-20 01:52:00,73.0,69.0,29.90,SSW,197,0.0,1.0,87,0.00,,,0.00,,2013-07-20 06:52:00,
2013-07-20 02:01:00,73.0,69.0,29.90,SSW,197,2.0,4.0,87,0.00,,,0.00,,2013-07-20 07:01:00,
2013-07-20 02:12:00,73.0,69.0,29.90,SSW,197,2.0,4.0,87,0.00,,,0.00,,2013-07-20 07:12:00,
2013-07-20 02:22:00,73.0,69.0,29.90,SSW,197,2.0,2.0,87,0.00,,,0.00,,2013-07-20 07:22:00,
2013-07-20 02:33:00,72.0,68.0,29.90,SSW,197,2.0,3.0,88,0.00,,,0.00,,2013-07-20 07:33:00,
2013-07-20 02:44:00,72.0,68.0,29.90,SSW,197,2.0,3.0,88,0.00,,,0.00,,2013-07-20 07:44:00,
2013-07-20 02:54:00,72.0,69.0,29.89,SSW,197,5.0,5.0,89,0.00,,,0.00,,2013-07-20 07:54:00,
2013-07-20 03:01:00,72.0,69.0,29.89,SSW,197,5.0,5.0,89,0.00,,,0.00,,2013-07-20 08:01:00,
2013-07-20 03:11:00,72.0,69.0,29.89,SSW,197,5.0,5.0,89,0.00,,,0.00,,2013-07-20 08:11:00,
2013-07-20 03:22:00,72.0,69.0,29.89,SSW,197,0.0,2.0,89,0.00,,,0.00,,2013-07-20 08:22:00,
2013-07-20 03:32:00,72.0,68.0,29.89,SSW,197,2.0,4.0,88,0.00,,,0.00,,2013-07-20 08:32:00,
2013-07-20 03:44:00,72.0,68.0,29.89,SSW,197,2.0,4.0,88,0.00,,,0.00,,2013-07-20 08:44:00,
2013-07-20 03:52:00,71.0,68.0,29.89,SSW,197,3.0,5.0,89,0.00,,,0.00,,2013-07-20 08:52:00,
2013-07-20 04:02:00,72.0,69.0,29.89,SSW,197,2.0,4.0,89,0.00,,,0.00,,2013-07-20 09:02:00,
2013-07-20 04:11:00,72.0,69.0,29.89,SSW,197,2.0,4.0,89,0.00,,,0.00,,2013-07-20 09:11:00,
2013-07-20 04:22:00,72.0,69.0,29.89,SSW,197,0.0,5.0,90,0.00,,,0.00,,2013-07-20 09:22:00,
2013-07-20 04:33:00,72.0,69.0,29.89,SSW,197,3.0,5.0,89,0.00,,,0.00,,2013-07-20 09:33:00,
2013-07-20 04:43:00,72.0,69.0,29.89,SSW,197,3.0,5.0,89,0.00,,,0.00,,2013-07-20 09:43:00,
2013-07-20 04:53:00,72.0,69.0,29.89,SSW,197,4.0,5.0,89,0.00,,,0.00,,2013-07-20 09:53:00,
2013-07-20 05:01:00,72.0,69.0,29.89,SSW,197,0.0,4.0,90,0.00,,,0.00,,2013-07-20 10:01:00,
2013-07-20 05:11:00,72.0,69.0,29.89,SSW,197,0.0,4.0,90,0.00,,,0.00,,2013-07-20 10:11:00,
2013-07-20 05:22:00,71.0,68.0,29.89,SSW,197,0.0,4.0,90,0.00,,,0.00,,2013-07-20 10:22:00,
2013-07-20 05:32:00,71.0,68.0,29.89,SSW,197,2.0,4.0,90,0.00,,,0.00,,2013-07-20 10:32:00,
2013-07-20 05:42:00,71.0,68.0,29.89,SSW,197,2.0,4.0,90,0.00,,,0.00,,2013-07-20 10:42:00,
2013-07-20 05:52:00,71.0,68.0,29.89,SSW,197,2.0,4.0,90,0.00,,,0.00,,2013-07-20 10:52:00,
2013-07-20 06:01:00,72.0,69.0,29.89,SSW,197,1.0,4.0,90,0.00,,,0.00,,2013-07-20 11:01:00,
2013-07-20 06:11:00,72.0,69.0,29.89,SSW,197,1.0,4.0,90,0.00,,,0.00,,2013-07-20 11:11:00,
2013-07-20 06:22:00,72.0,69.0,29.90,SSW,197,1.0,3.0,89,0.00,,,0.00,,2013-07-20 11:22:00,
2013-07-20 06:32:00,74.0,70.0,29.91,SSW,197,3.0,6.0,87,0.00,,,0.00,,2013-07-20 11:32:00,
2013-07-20 06:43:00,74.0,70.0,29.91,SSW,197,3.0,6.0,87,0.00,,,0.00,,2013-07-20 11:43:00,
2013-07-20 06:52:00,74.0,69.0,29.90,SW,218,5.0,6.0,84,0.00,,,0.00,,2013-07-20 11:52:00,
2013-07-20 07:01:00,74.0,69.0,29.90,SW,218,5.0,6.0,84,0.00,,,0.00,,2013-07-20 12:01:00,
2013-07-20 07:11:00,75.0,69.0,29.90,SW,223,2.0,5.0,83,0.00,,,0.00,,2013-07-20 12:11:00,
2013-07-20 07:22:00,75.0,69.0,29.90,SW,223,2.0,5.0,83,0.00,,,0.00,,2013-07-20 12:22:00,
2013-07-20 07:32:00,76.0,70.0,29.89,SW,223,0.0,5.0,82,0.00,,,0.00,,2013-07-20 12:32:00,
2013-07-20 07:52:00,76.0,70.0,29.90,SW,223,4.0,5.0,81,0.00,,,0.00,,2013-07-20 12:52:00,
2013-07-20 08:01:00,77.0,70.0,29.90,SW,234,4.0,8.0,79,0.00,,,0.00,,2013-07-20 13:01:00,
2013-07-20 08:11:00,77.0,70.0,29.90,SW,234,4.0,8.0,79,0.00,,,0.00,,2013-07-20 13:11:00,
2013-07-20 08:22:00,78.0,71.0,29.91,West,280,5.0,8.0,79,0.00,,,0.00,,2013-07-20 13:22:00,
2013-07-20 08:32:00,78.0,71.0,29.91,NW,308,7.0,10.0,78,0.00,,,0.00,,2013-07-20 13:32:00,
2013-07-20 08:43:00,78.0,71.0,29.91,NW,308,7.0,10.0,78,0.00,,,0.00,,2013-07-20 13:43:00,
2013-07-20 08:53:00,79.0,71.0,29.91,NW,311,5.0,9.0,76,0.00,,,0.00,,2013-07-20 13:53:00,
2013-07-20 09:02:00,80.0,72.0,29.91,NW,312,5.0,9.0,76,0.00,,,0.00,,2013-07-20 14:02:00,
2013-07-20 09:11:00,80.0,72.0,29.91,NW,312,5.0,9.0,76,0.00,,,0.00,,2013-07-20 14:11:00,
2013-07-20 09:22:00,80.0,72.0,29.91,NW,312,5.0,9.0,76,0.00,,,0.00,,2013-07-20 14:22:00,
2013-07-20 09:32:00,82.0,72.0,29.91,NW,314,7.0,11.0,72,0.00,,,0.00,,2013-07-20 14:32:00,
2013-07-20 09:43:00,82.0,72.0,29.91,NW,314,7.0,11.0,72,0.00,,,0.00,,2013-07-20 14:43:00,
2013-07-20 09:53:00,83.0,73.0,29.91,NW,317,7.0,12.0,71,0.00,,,0.00,,2013-07-20 14:53:00,
2013-07-20 10:01:00,84.0,72.0,29.90,NNW,327,8.0,11.0,68,0.00,,,0.00,,2013-07-20 15:01:00,
2013-07-20 10:11:00,84.0,72.0,29.90,NNW,327,8.0,11.0,68,0.00,,,0.00,,2013-07-20 15:11:00,
2013-07-20 10:22:00,85.0,74.0,29.90,NW,322,3.0,9.0,69,0.00,,,0.00,,2013-07-20 15:22:00,
2013-07-20 10:33:00,85.0,73.0,29.90,NNW,328,6.0,9.0,67,0.00,,,0.00,,2013-07-20 15:33:00,
2013-07-20 10:44:00,85.0,73.0,29.90,NNW,328,6.0,9.0,67,0.00,,,0.00,,2013-07-20 15:44:00,
2013-07-20 10:53:00,86.0,73.0,29.91,NNW,340,7.0,10.0,65,0.00,,,0.00,,2013-07-20 15:53:00,
2013-07-20 11:01:00,87.0,73.0,29.90,NNW,337,6.0,9.0,64,0.00,,,0.00,,2013-07-20 16:01:00,
2013-07-20 11:11:00,87.0,73.0,29.90,NNW,337,6.0,9.0,64,0.00,,,0.00,,2013-07-20 16:11:00,
2013-07-20 11:22:00,87.0,73.0,29.90,NNW,337,6.0,9.0,64,0.00,,,0.00,,2013-07-20 16:22:00,
2013-07-20 11:32:00,89.0,74.0,29.90,NW,324,8.0,11.0,61,0.00,,,0.00,,2013-07-20 16:32:00,
2013-07-20 11:43:00,89.0,74.0,29.90,NW,324,8.0,11.0,61,0.00,,,0.00,,2013-07-20 16:43:00,
2013-07-20 11:52:00,89.0,74.0,29.90,NW,321,7.0,10.0,62,0.00,,,0.00,,2013-07-20 16:52:00,
2013-07-20 12:02:00,91.0,75.0,29.90,NNW,338,4.0,9.0,59,0.00,,,0.00,,2013-07-20 17:02:00,
2013-07-20 12:11:00,91.0,75.0,29.90,NNW,338,4.0,9.0,59,0.00,,,0.00,,2013-07-20 17:11:00,
2013-07-20 12:22:00,92.0,75.0,29.89,NNW,343,4.0,9.0,57,0.00,,,0.00,,2013-07-20 17:22:00,
2013-07-20 12:32:00,91.0,73.0,29.89,NW,326,5.0,11.0,56,0.00,,,0.00,,2013-07-20 17:32:00,
2013-07-20 12:43:00,91.0,73.0,29.89,NW,326,5.0,11.0,56,0.00,,,0.00,,2013-07-20 17:43:00,
2013-07-20 12:53:00,93.0,74.0,29.89,NNW,339,0.0,9.0,54,0.00,,,0.00,,2013-07-20 17:53:00,
2013-07-20 13:01:00,92.0,72.0,29.88,NNE,18,7.0,12.0,52,0.00,,,0.00,,2013-07-20 18:01:00,
2013-07-20 13:11:00,92.0,72.0,29.88,NNE,18,7.0,12.0,52,0.00,,,0.00,,2013-07-20 18:11:00,
2013-07-20 13:24:00,92.0,72.0,29.88,NNE,18,7.0,12.0,52,0.00,,,0.00,,2013-07-20 18:24:00,
2013-07-20 13:45:00,95.0,73.0,29.87,NNW,330,7.0,10.0,50,0.00,,,0.00,,2013-07-20 18:45:00,
2013-07-20 13:59:00,95.0,73.0,29.86,North,4,10.0,13.0,50,0.00,,,0.00,,2013-07-20 18:59:00,
2013-07-20 14:05:00,95.0,73.0,29.86,North,4,10.0,13.0,50,0.00,,,0.00,,2013-07-20 19:05:00,
2013-07-20 14:26:00,96.0,72.0,29.85,NNE,26,2.0,9.0,47,0.00,,,0.00,,2013-07-20 19:26:00,
2013-07-20 14:34:00,96.0,72.0,29.85,NNE,26,2.0,9.0,47,0.00,,,0.00,,2013-07-20 19:34:00,
2013-07-20 14:44:00,96.0,72.0,29.85,NNE,26,2.0,9.0,47,0.00,,,0.00,,2013-07-20 19:44:00,
2013-07-20 14:56:00,93.0,73.0,29.85,NW,326,1.0,8.0,52,0.00,,,0.00,,2013-07-20 19:56:00,
2013-07-20 15:06:00,93.0,73.0,29.85,NW,326,1.0,8.0,52,0.00,,,0.00,,2013-07-20 20:06:00,
2013-07-20 15:14:00,93.0,73.0,29.85,NW,326,1.0,8.0,52,0.00,,,0.00,,2013-07-20 20:14:00,
2013-07-20 16:27:00,85.0,71.0,29.83,SSE,161,5.0,9.0,63,0.00,,,0.00,,2013-07-20 21:27:00,
2013-07-20 16:34:00,85.0,71.0,29.83,SSE,161,5.0,9.0,63,0.00,,,0.00,,2013-07-20 21:34:00,
2013-07-20 16:44:00,85.0,71.0,29.83,SSE,161,5.0,9.0,63,0.00,,,0.00,,2013-07-20 21:44:00,
2013-07-20 16:56:00,85.0,71.0,29.83,SSE,161,5.0,9.0,63,0.00,,,0.00,,2013-07-20 21:56:00,
2013-07-20 19:45:00,81.0,70.0,29.84,ESE,120,3.0,5.0,69,0.00,,,0.00,,2013-07-21 00:45:00,
2013-07-20 19:56:00,80.0,70.0,29.87,NW,317,7.0,16.0,72,0.00,,,0.00,,2013-07-21 00:56:00,
2013-07-20 20:06:00,78.0,69.0,29.88,WNW,296,11.0,16.0,75,0.00,,,0.00,,2013-07-21 01:06:00,
2013-07-20 20:12:00,78.0,69.0,29.88,WNW,296,11.0,16.0,75,0.00,,,0.00,,2013-07-21 01:12:00,
2013-07-20 20:36:00,74.0,67.0,29.93,NW,324,7.0,14.0,80,0.00,,,0.00,,2013-07-21 01:36:00,
2013-07-20 20:45:00,-999.0,-99.9,29.93,NW,324,7.0,14.0,-999,-99.99,,,-99.99,,2013-07-21 01:45:00,
2013-07-20 20:59:00,73.0,69.0,29.95,NNW,348,5.0,13.0,86,0.00,,,0.00,,2013-07-21 01:59:00,
2013-07-20 21:05:00,72.0,69.0,29.96,North,355,6.0,21.0,91,0.00,,,0.00,,2013-07-21 02:05:00,
2013-07-20 21:16:00,72.0,69.0,29.96,North,355,6.0,21.0,91,0.00,,,0.00,,2013-07-21 02:16:00,
2013-07-20 21:26:00,72.0,69.0,29.96,North,355,6.0,21.0,91,0.00,,,0.00,,2013-07-21 02:26:00,
2013-07-20 21:36:00,72.0,69.0,29.96,North,355,6.0,21.0,91,0.00,,,0.00,,2013-07-21 02:36:00,
2013-07-20 21:44:00,72.0,69.0,29.96,North,355,6.0,21.0,91,0.00,,,0.00,,2013-07-21 02:44:00,
2013-07-20 23:01:00,71.0,69.0,29.85,SSW,207,9.0,12.0,93,0.00,,,0.01,,2013-07-21 04:01:00,
2013-07-20 23:11:00,71.0,69.0,29.85,SSW,207,9.0,12.0,93,0.00,,,0.01,,2013-07-21 04:11:00,
2013-07-20 23:22:00,71.0,69.0,29.85,South,180,9.0,12.0,92,0.00,,,0.01,,2013-07-21 04:22:00,
2013-07-20 23:32:00,71.0,69.0,29.87,SSE,163,6.0,10.0,92,0.00,,,0.01,,2013-07-21 04:32:00,
2013-07-20 23:43:00,71.0,69.0,29.87,SSE,163,6.0,10.0,92,0.00,,,0.01,,2013-07-21 04:43:00,
2013-07-20 23:53:00,71.0,69.0,29.87,SSE,163,6.0,10.0,92,0.00,,,0.01,,2013-07-21 04:53:00,